{"data":{"norad_id":69885,"epoch":"2026-09-19T22:40:22.098144Z","epoch_age_seconds":69652,"freshness":"FRESH","line1":"1 69885U 26156S   26262.94470021  .00000707  00000+0  76134-4 0  9999","line2":"2 69885  97.7433 162.0986 0004337 250.4152 109.6599 14.91535416 11122","mean_motion":14.91535416,"eccentricity":0.0004337,"inclination_deg":97.7433,"raan_deg":162.0986,"arg_perigee_deg":250.4152,"mean_anomaly_deg":109.6599,"bstar":7.6134e-5,"rev_number":1112,"period_min":96.54480775668,"perigee_km":590.12385955215,"apogee_km":596.17075155878,"semimajor_km":6971.2843055555,"source":"CELESTRAK","updated_at":"2026-09-20T09:00:25.166955Z"}}